Find Arabsat 1B

NORAD ID: 15825 Int'l Des: 1985-048 Owner: ARAB Country: I-ARAB operational
MEOCIRCULAR

Live-Position

3D-Globus wird geladen...

Über Arabsat 1B

Beschreibung wird geladen...

Nächste Überflüge

Passes for default location (London). Set your location on the main map for personalized predictions.

Höhenverlauf

Loading altitude history...

Zweizeiliger Elementsatz

1 15825U 85048C 26105.82928476 -.00000153 00000-0 00000+0 0 9995
2 15825 12.4457 334.5548 0017056 22.7362 221.5866 1.00442350134804
Epoch: 15. Apr. 2026 • Age: 6 hours

Aktueller Status

Höhe 35687.9 km
Geschwindigkeit 3.08 km/s
Subsatellitenpunkt -4.58°S, 76.84°E
Startdatum 17. Juni 1985
Alter 40.8 years
Typ other

Technische Details

Klassifizierung Payload
Masse 1270.00 kg
Trockenmasse 592.00 kg
Gesamtmasse 1270.00 kg
Länge 2.30 m
Durchmesser 1.50 m
Spannweite 20.70 m
Form Box + Pan + Ant
Hersteller AESPC/FORDA
Bus-Typ Spacebus 100
Phasenstatus In Orbit
Besitzer/Staat ARAB/I-ARAB

Most Searched